FW7127 Weather Reports


time (UTC)temp
C
wind
direction
speed
KPH
gust
KPH
rain 1hr
cm
rain 24hr
cm
rain mn
cm
humidity
%
barometer
mb
20260506193045 26 264 3.2 11.3 0.00 0.00 0.00 86 1011.0
20260506192541 25 324 4.8 12.9 0.00 0.00 0.00 86 1011.2
20260506192037 25 28 0.0 9.7 0.00 0.00 0.00 87 1011.4
20260506191534 24 320 6.4 14.5 0.00 0.00 0.00 87 1011.4
20260506191030 24 326 4.8 14.5 0.00 0.00 0.00 87 1011.5
20260506190527 23 314 6.4 17.7 0.00 0.00 0.00 87 1011.3
20260506190024 24 346 4.8 12.9 0.00 0.00 0.00 86 1011.5
20260506185521 25 353 8.0 14.5 0.00 0.00 0.00 84 1011.5
20260506185018 27 337 6.4 8.0 0.00 0.00 0.00 83 1011.3
20260506184515 28 258 3.2 6.4 0.00 0.00 0.00 81 1011.3
20260506184013 27 118 3.2 8.0 0.00 0.00 0.00 82 1011.4
20260506183508 27 88 3.2 8.0 0.00 0.00 0.00 83 1011.4
20260506183005 27 119 4.8 8.0 0.00 0.00 0.00 84 1011.4
20260506182502 27 96 6.4 9.7 0.00 0.00 0.00 85 1011.4
20260506181959 27 124 8.0 11.3 0.00 0.00 0.00 85 1011.4
20260506181457 27 97 11.3 16.1 0.00 0.00 0.00 85 1011.6
20260506180954 27 139 6.4 11.3 0.00 0.00 0.00 85 1011.6
20260506180450 27 134 6.4 11.3 0.00 0.00 0.00 83 1011.7
20260506175947 27 123 3.2 11.3 0.00 0.00 0.00 85 1011.8
20260506175444 27 147 4.8 9.7 0.00 0.00 0.00 84 1012.0
20260506174940 27 135 4.8 12.9 0.00 0.00 0.00 84 1012.0
20260506174438 28 89 0.0 3.2 0.00 0.00 0.00 85 1012.2
20260506173934 28 175 0.0 6.4 0.00 0.00 0.00 85 1011.9
20260506173432 28 100 1.6 4.8 0.00 0.00 0.00 85 1012.3
20260506172928 27 3 0.0 6.4 0.00 0.00 0.00 86 1012.3
20260506172425 27 104 8.0 14.5 0.00 0.00 0.00 85 1012.7
20260506171917 27 336 0.0 3.2 0.00 0.00 0.00 87 1012.6
20260506171414 27 217 0.0 3.2 0.00 0.00 0.00 87 1012.7
20260506170912 27 352 0.0 3.2 0.00 0.00 0.00 88 1012.7
20260506170407 26 268 1.6 6.4 0.00 0.00 0.00 88 1012.8
20260506165901 26 113 11.3 11.3 0.00 0.00 0.00 88 1012.8
20260506165359 26 196 0.0 1.6 0.00 0.00 0.00 90 1012.9
20260506164855 26 230 0.0 1.6 0.00 0.00 0.00 90 1013.1
20260506164351 26 321 0.0 3.2 0.00 0.00 0.00 90 1012.9
20260506163850 26 252 0.0 4.8 0.00 0.00 0.00 91 1012.9
20260506163344 26 217 0.0 3.2 0.00 0.00 0.00 91 1013.0
20260506162839 26 229 0.0 1.6 0.00 0.00 0.00 91 1013.0
20260506162337 26 31 0.0 4.8 0.00 0.00 0.00 90 1012.8
20260506161834 26 235 0.0 1.6 0.00 0.00 0.00 91 1012.8
20260506161331 26 325 0.0 4.8 0.00 0.00 0.00 91 1012.6
20260506160824 26 256 0.0 4.8 0.00 0.00 0.00 91 1012.5
20260506160320 26 172 0.0 1.6 0.00 0.00 0.00 91 1012.4
20260506155818 26 74 1.6 4.8 0.00 0.00 0.00 92 1012.3
20260506155314 25 213 4.8 6.4 0.00 0.00 0.00 92 1012.2
20260506153427 25 116 6.4 9.7 0.00 0.00 0.00 92 1011.9
20260506152925 25 161 4.8 8.0 0.00 0.00 0.00 92 1011.9
20260506152421 25 165 1.6 4.8 0.00 0.00 0.00 92 1011.9
20260506151920 25 106 3.2 6.4 0.00 0.00 0.00 92 1011.8
20260506151416 25 122 1.6 4.8 0.00 0.00 0.00 93 1011.9
20260506150914 25 101 3.2 4.8 0.00 0.00 0.00 93 1011.8
20260506150410 25 107 4.8 6.4 0.00 0.00 0.00 93 1012.1
20260506145907 25 104 3.2 4.8 0.00 0.00 0.00 93 1012.1
20260506145403 25 117 6.4 6.4 0.00 0.00 0.00 93 1011.9
20260506144901 25 131 3.2 4.8 0.00 0.00 0.00 94 1011.8
20260506144357 25 132 1.6 4.8 0.00 0.00 0.00 94 1011.6
20260506143856 25 113 6.4 9.7 0.00 0.00 0.00 94 1011.5
20260506143353 25 145 3.2 6.4 0.00 0.00 0.00 94 1011.6
20260506142851 25 162 3.2 6.4 0.00 0.00 0.00 95 1011.5
20260506142348 25 160 4.8 8.0 0.00 0.00 0.00 95 1011.4
20260506141846 25 130 0.0 3.2 0.00 0.00 0.00 95 1011.3
20260506141344 24 138 3.2 6.4 0.00 0.00 0.00 95 1011.0
20260506140842 24 121 4.8 8.0 0.00 0.00 0.00 95 1011.1
20260506140339 24 107 4.8 8.0 0.00 0.00 0.00 96 1011.0
20260506135836 24 106 4.8 4.8 0.00 0.00 0.00 96 1011.1
20260506135332 24 99 6.4 8.0 0.00 0.00 0.00 96 1010.8
20260506134828 24 171 1.6 4.8 0.00 0.00 0.00 96 1010.9
20260506134325 24 131 6.4 6.4 0.00 0.00 0.00 96 1011.0
20260506133822 24 125 4.8 8.0 0.00 0.00 0.00 96 1010.9
20260506133319 23 128 4.8 8.0 0.00 0.00 0.00 96 1011.1
20260506132816 23 105 4.8 8.0 0.00 0.00 0.00 96 1011.2
20260506132313 23 163 3.2 8.0 0.00 0.00 0.00 96 1011.1
20260506131811 23 136 4.8 6.4 0.00 0.00 0.00 96 1011.2
20260506131307 23 110 4.8 8.0 0.00 0.00 0.00 96 1011.2
20260506130804 23 162 1.6 9.7 0.00 0.00 0.00 96 1011.2
20260506130301 23 113 4.8 6.4 0.00 0.00 0.00 96 1011.2
20260506125759 23 159 3.2 6.4 0.00 0.00 0.00 96 1010.9
20260506125257 23 115 4.8 6.4 0.00 0.00 0.00 96 1011.1
20260506124755 23 119 4.8 6.4 0.00 0.00 0.00 96 1011.1
20260506124252 23 186 1.6 4.8 0.00 0.00 0.00 96 1011.1
20260506123749 23 170 3.2 11.3 0.00 0.00 0.00 96 1011.1
20260506123248 23 169 8.0 9.7 0.00 0.00 0.00 96 1011.0
20260506122744 23 175 6.4 9.7 0.00 0.00 0.00 96 1011.1
20260506122241 23 169 8.0 11.3 0.00 0.00 0.00 96 1011.0
20260506121740 23 201 6.4 9.7 0.00 0.00 0.00 96 1010.8
20260506121236 23 176 4.8 8.0 0.00 0.00 0.00 96 1010.8
20260506120733 23 163 6.4 11.3 0.00 0.00 0.00 96 1010.8
20260506120231 23 171 4.8 8.0 0.00 0.00 0.00 96 1010.7
20260506115729 23 169 9.7 11.3 0.00 0.00 0.00 96 1010.8
20260506115227 23 186 4.8 14.5 0.00 0.00 0.00 96 1010.7
20260506114724 23 186 6.4 12.9 0.00 0.00 0.00 96 1010.7
20260506114221 23 177 4.8 11.3 0.00 0.00 0.00 96 1010.6
20260506113720 23 162 14.5 16.1 0.00 0.00 0.00 96 1010.5
20260506113217 23 174 12.9 17.7 0.00 0.00 0.00 96 1010.5
20260506112713 23 165 11.3 16.1 0.00 0.00 0.00 96 1010.5
20260506112211 23 182 6.4 17.7 0.00 0.00 0.00 96 1010.3
20260506111708 23 168 11.3 19.3 0.00 0.00 0.00 96 1010.5
20260506111206 23 196 6.4 11.3 0.00 0.00 0.00 96 1010.2
20260506110703 23 188 8.0 19.3 0.00 0.00 0.00 96 1010.3
20260506110201 23 177 6.4 14.5 0.00 0.00 0.00 96 1010.4
20260506105657 23 173 9.7 16.1 0.00 0.00 0.00 96 1010.3
20260506105154 23 173 11.3 19.3 0.00 0.00 0.00 96 1010.1
20260506104652 23 178 16.1 20.9 0.00 0.00 0.00 96 1010.0
20260506104149 23 162 12.9 16.1 0.00 0.00 0.00 96 1010.2
20260506103646 23 193 6.4 19.3 0.00 0.00 0.00 96 1010.0
20260506103143 23 167 9.7 20.9 0.00 0.00 0.00 96 1009.8
20260506102642 23 158 8.0 19.3 0.00 0.00 0.00 96 1009.7
20260506102138 23 185 8.0 19.3 0.00 0.00 0.00 96 1009.6
20260506101635 23 171 14.5 24.1 0.00 0.00 0.00 96 1009.2
20260506101132 23 162 16.1 27.4 0.00 0.00 0.00 97 1009.4
20260506100631 23 177 12.9 20.9 0.00 0.00 0.00 97 1009.4
20260506100128 23 168 16.1 24.1 0.00 0.00 0.00 97 1009.6
20260506095627 23 165 16.1 16.1 0.00 0.00 0.00 97 1009.6
20260506095123 23 189 14.5 17.7 0.00 0.00 0.00 97 1009.7
20260506094620 23 187 12.9 17.7 0.00 0.00 0.00 97 1009.5
20260506094118 23 194 17.7 17.7 0.00 0.00 0.00 97 1009.6
20260506093616 23 185 11.3 17.7 0.00 0.00 0.00 97 1009.7
20260506093113 23 177 11.3 17.7 0.00 0.00 0.00 97 1009.6
20260506092611 23 171 11.3 19.3 0.00 0.00 0.00 97 1009.5
20260506092108 23 161 11.3 24.1 0.00 0.00 0.00 97 1009.4
20260506091606 23 179 14.5 22.5 0.00 0.00 0.00 97 1009.6
20260506091103 23 173 19.3 19.3 0.00 0.00 0.00 97 1009.4
20260506090601 23 166 8.0 17.7 0.00 0.00 0.00 97 1009.4
20260506090057 23 167 9.7 19.3 0.00 0.00 0.00 97 1009.5
20260506085554 23 171 12.9 20.9 0.00 0.00 0.00 96 1009.5
20260506085050 23 162 14.5 22.5 0.00 0.00 0.00 96 1009.3
20260506084547 23 190 11.3 24.1 0.00 0.00 0.00 96 1009.4
20260506084043 23 165 19.3 19.3 0.00 0.00 0.00 96 1009.5
20260506083541 23 164 8.0 19.3 0.00 0.00 0.00 96 1009.5
20260506083038 23 165 8.0 17.7 0.00 0.00 0.00 96 1009.5
20260506082535 23 173 17.7 20.9 0.00 0.00 0.00 96 1009.6
20260506082030 23 188 9.7 19.3 0.00 0.00 0.00 96 1009.6
20260506081529 23 168 12.9 20.9 0.00 0.00 0.00 96 1009.6
20260506081026 23 170 9.7 19.3 0.00 0.00 0.00 96 1009.5
20260506080524 23 182 11.3 20.9 0.00 0.00 0.00 96 1009.7
20260506073507 23 165 14.5 24.1 0.00 0.00 0.00 95 1010.1
20260506073004 23 176 11.3 29.0 0.00 0.00 0.00 95 1009.8
20260506072501 23 173 16.1 19.3 0.00 0.00 0.00 95 1010.0
20260506071959 23 163 14.5 19.3 0.00 0.00 0.00 95 1010.3
20260506071457 23 158 12.9 24.1 0.00 0.00 0.00 95 1010.3
20260506070953 23 169 11.3 17.7 0.00 0.00 0.00 95 1010.4
20260506070450 23 170 14.5 19.3 0.00 0.00 0.00 95 1010.3
20260506062428 23 169 11.3 22.5 0.00 0.00 0.00 95 1010.6
20260506061924 23 174 9.7 16.1 0.00 0.00 0.00 95 1010.7
20260506061420 23 153 8.0 16.1 0.00 0.00 0.00 95 1010.6
20260506060918 23 180 11.3 19.3 0.00 0.00 0.00 95 1010.5
20260506060416 23 174 14.5 17.7 0.00 0.00 0.00 95 1010.6
20260506051348 24 173 14.5 17.7 0.00 0.00 0.00 94 1010.7
20260506050845 24 195 8.0 16.1 0.00 0.00 0.00 94 1010.8
20260506050343 24 167 14.5 17.7 0.00 0.00 0.00 93 1010.7
20260506044833 24 178 8.0 16.1 0.00 0.00 0.00 93 1010.7
20260506044331 24 177 6.4 12.9 0.00 0.00 0.00 93 1010.7
20260506043828 24 193 6.4 14.5 0.00 0.00 0.00 93 1010.8
20260506043325 24 166 9.7 20.9 0.00 0.00 0.00 93 1010.9
20260506042824 24 167 11.3 17.7 0.00 0.00 0.00 93 1010.6
20260506042322 24 167 11.3 17.7 0.00 0.00 0.00 93 1010.5
20260506041821 24 161 8.0 14.5 0.00 0.00 0.00 92 1010.6
20260506041317 24 159 11.3 19.3 0.00 0.00 0.00 92 1010.3
20260506040814 24 185 11.3 20.9 0.00 0.00 0.00 92 1010.3
20260506040312 24 167 8.0 17.7 0.00 0.00 0.00 92 1010.3
20260506035808 24 172 11.3 24.1 0.00 0.00 0.00 92 1010.1
20260506035306 24 166 17.7 24.1 0.00 0.00 0.00 92 1010.4
20260506034803 24 168 14.5 17.7 0.00 0.00 0.00 92 1010.4
20260506034300 24 168 14.5 24.1 0.00 0.00 0.00 92 1010.3
20260506033756 24 180 8.0 16.1 0.00 0.00 0.00 92 1010.3
20260506033253 25 185 16.1 20.9 0.00 0.00 0.00 92 1010.1
20260506032750 25 170 12.9 17.7 0.00 0.00 0.00 92 1010.0
20260506032247 25 177 12.9 17.7 0.00 0.00 0.00 92 1010.1
20260506031744 25 167 8.0 17.7 0.00 0.00 0.00 91 1010.0
20260506031241 25 169 6.4 12.9 0.00 0.00 0.00 91 1009.9
20260506030739 25 171 16.1 16.1 0.00 0.00 0.00 91 1009.9
20260506030237 25 168 9.7 20.9 0.00 0.00 0.00 91 1010.0
20260506025733 25 168 9.7 17.7 0.00 0.00 0.00 91 1009.9
20260506025230 25 174 9.7 14.5 0.00 0.00 0.00 91 1009.7
20260506024727 25 186 6.4 17.7 0.00 0.00 0.00 91 1009.8
20260506024223 25 162 12.9 16.1 0.00 0.00 0.00 91 1009.7
20260506023720 25 169 8.0 16.1 0.00 0.00 0.00 90 1009.8
20260506023217 25 165 16.1 24.1 0.00 0.00 0.00 90 1009.7
20260506022714 25 165 11.3 16.1 0.00 0.00 0.00 90 1009.4
20260506022211 25 193 6.4 19.3 0.00 0.00 0.00 90 1009.4
20260506021709 25 163 14.5 19.3 0.00 0.00 0.00 90 1009.3
20260506021206 25 161 8.0 16.1 0.00 0.00 0.00 90 1009.4
20260506020703 25 170 8.0 14.5 0.00 0.00 0.00 90 1009.3
20260506020201 25 175 12.9 12.9 0.00 0.00 0.00 89 1009.3
20260506015658 25 176 6.4 17.7 0.00 0.00 0.00 89 1008.9
20260506015155 25 177 8.0 17.7 0.00 0.00 0.00 89 1009.3
20260506014652 25 172 6.4 14.5 0.00 0.00 0.00 89 1008.9
20260506014148 25 168 8.0 17.7 0.00 0.00 0.00 89 1008.7
20260506013646 25 176 8.0 14.5 0.00 0.00 0.00 89 1008.8
20260506013143 25 180 11.3 20.9 0.00 0.00 0.00 88 1008.6
20260506012639 25 175 8.0 14.5 0.00 0.00 0.00 88 1008.6
20260506012136 25 152 11.3 17.7 0.00 0.00 0.00 88 1008.4
20260506011633 25 163 14.5 22.5 0.00 0.00 0.00 88 1008.5
20260506011129 25 172 4.8 11.3 0.00 0.00 0.00 87 1008.3
20260506010628 25 166 11.3 14.5 0.00 0.00 0.00 87 1008.4
20260506010125 25 163 11.3 17.7 0.00 0.00 0.00 87 1008.4
20260506005622 25 157 14.5 20.9 0.00 0.00 0.00 86 1008.3
20260506005118 25 174 9.7 20.9 0.00 0.00 0.00 86 1008.2
20260506004615 25 169 8.0 22.5 0.00 0.00 0.00 86 1008.0
20260506004112 25 162 17.7 17.7 0.00 0.00 0.00 86 1008.0
20260506003609 25 164 12.9 24.1 0.00 0.00 0.00 85 1007.8
20260506003105 25 174 11.3 17.7 0.00 0.00 0.00 86 1007.9
20260506002600 26 163 12.9 27.4 0.00 0.00 0.00 85 1007.9
20260506002057 26 170 6.4 14.5 0.00 0.00 0.00 85 1008.0
20260506001553 26 151 16.1 19.3 0.00 0.00 0.00 85 1008.0
20260506001050 26 171 14.5 22.5 0.00 0.00 0.00 85 1008.0
20260506000547 26 184 19.3 32.2 0.00 0.00 0.00 84 1008.0
20260506000045 26 192 9.7 22.5 0.00 0.00 0.00 85 1008.1
20260505235543 26 171 9.7 20.9 0.00 0.00 0.00 84 1007.9
20260505235040 26 185 11.3 17.7 0.00 0.00 0.00 84 1007.8
20260505234536 26 181 16.1 22.5 0.00 0.00 0.00 84 1007.7
20260505234033 26 186 9.7 24.1 0.00 0.00 0.00 84 1007.6
20260505233531 26 172 11.3 22.5 0.00 0.00 0.00 84 1007.5
20260505233028 26 167 20.9 27.4 0.00 0.00 0.00 83 1007.7
20260505232526 26 170 19.3 25.7 0.00 0.00 0.00 83 1008.0
20260505232023 26 161 11.3 16.1 0.00 0.00 0.00 84 1007.7
20260505231520 26 164 11.3 19.3 0.00 0.00 0.00 83 1007.7
20260505231019 27 168 9.7 24.1 0.00 0.00 0.00 82 1007.6
20260505230516 27 170 16.1 27.4 0.00 0.00 0.00 81 1007.5
20260505230012 27 171 17.7 27.4 0.00 0.00 0.00 82 1007.7
20260505225509 27 154 9.7 27.4 0.00 0.00 0.00 82 1007.5
20260505225005 26 171 12.9 29.0 0.00 0.00 0.00 82 1007.6
20260505224502 27 155 14.5 27.4 0.00 0.00 0.00 82 1007.7
20260505223959 27 174 16.1 32.2 0.00 0.00 0.00 81 1007.6
20260505223456 27 189 16.1 24.1 0.00 0.00 0.00 81 1007.6
20260505222952 27 173 8.0 29.0 0.00 0.00 0.00 81 1007.9
20260505222449 27 180 14.5 30.6 0.00 0.00 0.00 81 1007.9
20260505221944 27 151 9.7 24.1 0.00 0.00 0.00 81 1007.7
20260505221442 27 167 17.7 25.7 0.00 0.00 0.00 80 1007.8
20260505220939 27 165 14.5 25.7 0.00 0.00 0.00 81 1007.8
20260505220436 27 170 25.7 30.6 0.00 0.00 0.00 79 1007.7
20260505215933 28 172 9.7 24.1 0.00 0.00 0.00 79 1008.1
20260505215431 28 166 19.3 25.7 0.00 0.00 0.00 80 1007.8
20260505214929 27 196 17.7 29.0 0.00 0.00 0.00 79 1007.8
20260505214427 27 169 17.7 27.4 0.00 0.00 0.00 79 1007.8
20260505213924 27 166 19.3 25.7 0.00 0.00 0.00 79 1007.9
20260505213421 27 171 16.1 24.1 0.00 0.00 0.00 80 1008.2
20260505212917 28 165 14.5 27.4 0.00 0.00 0.00 80 1008.2
20260505212414 27 171 19.3 24.1 0.00 0.00 0.00 80 1008.2
20260505211911 28 188 8.0 24.1 0.00 0.00 0.00 80 1008.1
20260505211409 27 163 11.3 29.0 0.00 0.00 0.00 79 1008.3
20260505210904 27 148 11.3 29.0 0.00 0.00 0.00 80 1008.2
20260505210402 28 167 16.1 29.0 0.00 0.00 0.00 80 1008.3
20260505205858 28 170 12.9 29.0 0.00 0.00 0.00 79 1008.5
20260505205357 28 183 12.9 27.4 0.00 0.00 0.00 77 1008.4
20260505204853 28 211 22.5 33.8 0.00 0.00 0.00 76 1008.5
20260505204351 28 166 14.5 24.1 0.00 0.00 0.00 76 1008.7
20260505203848 28 180 12.9 27.4 0.00 0.00 0.00 77 1008.8
20260505203344 28 170 14.5 33.8 0.00 0.00 0.00 76 1008.8
20260505202841 28 187 17.7 32.2 0.00 0.00 0.00 75 1008.8
20260505202337 28 201 19.3 32.2 0.00 0.00 0.00 76 1009.0
20260505201834 28 171 14.5 25.7 0.00 0.00 0.00 77 1009.0
20260505201331 28 203 17.7 22.5 0.00 0.00 0.00 78 1009.0
20260505200830 28 176 11.3 29.0 0.00 0.00 0.00 76 1009.2
20260505200326 28 203 24.1 32.2 0.00 0.00 0.00 76 1009.0
20260505195822 28 192 11.3 35.4 0.00 0.00 0.00 78 1009.0
20260505195319 28 166 25.7 35.4 0.00 0.00 0.00 77 1009.5
20260505194816 28 199 14.5 27.4 0.00 0.00 0.00 78 1009.5
20260505194313 28 204 19.3 27.4 0.00 0.00 0.00 78 1009.4
20260505193808 27 181 6.4 32.2 0.00 0.00 0.00 78 1009.7